Location: Assche-ter-Heiden
(50.9174°N, 4.1574°E)
Time: 21:14:15
(UTC+00:00)

Timation 1 Rocket - Pass Details

Date: 20 January 2020
Orbit: 896 x 911 km, 70.0° (Epoch: 17 February)

Event Time Altitude Azimuth Distance (km) Brightness Sun altitude
Exits shadow 05:27:09 18° 330° (NNW) 2,069 5.9 -19.8°
Maximum altitude 05:31:44 85° 58° (ENE) 922 4.4 -19.0°
Drops below altitude 10° 05:37:46 10° 148° (SSE) 2,593 7.3 -18.1°
Sets 05:40:15 0° 149° (SSE) 3,531 8.1 -17.7°
